Change the Weather History Date:

Saturday, February 15, 2014

  Actual Average Record
Temperature  
Mean Temperature 40 °F -  
Max Temperature 57 °F 41 °F 73 °F (1954)
Min Temperature 22 °F 20 °F -6 °F (1958)
Degree Days  
Heating Degree Days 26    
Moisture  
Dew Point 24 °F    
Average Humidity 66    
Maximum Humidity 86    
Minimum Humidity 30    
Precipitation  
Precipitation 0.00 in - - ()
Sea Level Pressure  
Sea Level Pressure 29.93 in    
Wind  
Wind Speed 10 mph (SW)    
Max Wind Speed 22 mph    
Max Gust Speed 30 mph    
Visibility 10 miles    
Events      
Averages and records for this station are not official NWS values.
T = Trace of Precipitation, MM = Missing Value Source: NWS Daily Summary

Daily Weather History Graph

Daily Weather History Graph

Search for Another Location

Airport or City:

Trip Planner

Search our weather history database for the weather conditions in past years. The results will help you decide how hot, cold, wet, or windy it might be!

Date:

Astronomy

Feb. 15, 2014 Rise Set
Actual Time 7:20 AM CST 6:02 PM CST
Civil Twilight 6:52 AM CST 6:30 PM CST
Nautical Twilight 6:20 AM CST 7:02 PM CST
Astronomical Twilight 5:49 AM CST 7:33 PM CST
Moon 7:03 PM CST (2/15) 7:19 AM CST (2/15)
Length of Visible Light 11h 38m
Length of Day
10h 42m
Waxing Gibbous, 99% of the Moon is Illuminated
Feb 15
Waxing Gibbous
Feb 22
Last Quarter
Mar 1
New
Mar 8
First Quarter
Mar 16
Full

Hourly Weather History & Observations

Time (CST) Temp. Windchill Dew Point Humidity Pressure Visibility Wind Dir Wind Speed Gust Speed Precip Events Conditions
12:10 AM 23.9 °F 18.0 °F 17.1 °F 75% 30.05 in 10.0 mi South 4.6 mph - N/A   Clear
12:35 AM 23.7 °F 16.6 °F 16.9 °F 75% 30.05 in 10.0 mi SSE 5.8 mph - N/A   Clear
12:55 AM 22.8 °F 16.7 °F 15.8 °F 74% 30.04 in 10.0 mi South 4.6 mph - N/A   Clear
1:15 AM 23.5 °F 15.4 °F 16.5 °F 75% 30.03 in 10.0 mi SSE 6.9 mph - N/A   Clear
1:35 AM 23.4 °F 17.4 °F 17.1 °F 77% 30.04 in 10.0 mi South 4.6 mph - N/A   Clear
1:55 AM 23.5 °F 19.1 °F 17.6 °F 78% 30.03 in 10.0 mi SSE 3.5 mph - N/A   Clear
2:15 AM 23.9 °F 15.8 °F 18.5 °F 80% 30.02 in 10.0 mi SSE 6.9 mph - N/A   Scattered Clouds
2:35 AM 24.4 °F 17.5 °F 18.9 °F 79% 30.01 in 10.0 mi SSE 5.8 mph - N/A   Overcast
2:55 AM 24.8 °F 16.1 °F 19.2 °F 79% 30.02 in 10.0 mi South 8.1 mph - N/A   Overcast
3:15 AM 25.2 °F 16.5 °F 19.9 °F 81% 30.00 in 10.0 mi SSE 8.1 mph - N/A   Overcast
3:35 AM 25.7 °F 15.7 °F 20.3 °F 80% 29.97 in 10.0 mi South 10.4 mph - N/A   Overcast
3:55 AM 26.4 °F 15.5 °F 20.3 °F 78% 29.96 in 10.0 mi South 12.7 mph - N/A   Overcast
4:15 AM 26.4 °F 16.0 °F 20.3 °F 78% 29.96 in 10.0 mi South 11.5 mph - N/A   Overcast
4:35 AM 26.4 °F 15.5 °F 20.3 °F 78% 29.93 in 10.0 mi South 12.7 mph - N/A   Overcast
4:55 AM 26.6 °F 16.2 °F 19.9 °F 76% 29.94 in 10.0 mi South 11.5 mph - N/A   Overcast
5:15 AM 26.6 °F 15.2 °F 20.1 °F 77% 29.91 in 10.0 mi SSE 13.8 mph 18.4 mph N/A   Overcast
5:35 AM 26.6 °F 15.7 °F 20.1 °F 77% 29.91 in 10.0 mi South 12.7 mph - N/A   Overcast
5:55 AM 27.0 °F 16.1 °F 20.3 °F 76% 29.91 in 10.0 mi South 12.7 mph - N/A   Overcast
6:15 AM 27.1 °F 16.9 °F 20.7 °F 77% 29.90 in 10.0 mi South 11.5 mph - N/A   Overcast
6:35 AM 27.3 °F 16.1 °F 20.8 °F 77% 29.91 in 10.0 mi South 13.8 mph - N/A   Overcast
6:55 AM 27.3 °F 16.6 °F 21.0 °F 77% 29.88 in 10.0 mi South 12.7 mph 18.4 mph N/A   Overcast
7:15 AM 27.5 °F 15.4 °F 21.2 °F 77% 29.87 in 10.0 mi South 16.1 mph 19.6 mph N/A   Overcast
7:35 AM 27.9 °F 17.3 °F 21.2 °F 76% 29.86 in 10.0 mi SSE 12.7 mph 19.6 mph N/A   Overcast
7:55 AM 28.2 °F 18.3 °F 21.6 °F 76% 29.85 in 10.0 mi South 11.5 mph - N/A   Overcast
8:15 AM 28.4 °F 17.5 °F 21.9 °F 77% 29.86 in 10.0 mi South 13.8 mph - N/A   Overcast
8:35 AM 28.9 °F 18.2 °F 22.1 °F 76% 29.84 in 10.0 mi South 13.8 mph 19.6 mph N/A   Overcast
8:55 AM 29.5 °F 19.9 °F 22.5 °F 75% 29.88 in 10.0 mi SSW 11.5 mph - N/A   Overcast
9:15 AM 30.6 °F 19.4 °F 23.0 °F 74% 29.87 in 10.0 mi SSW 16.1 mph - N/A   Overcast
9:35 AM 31.6 °F 22.6 °F 23.5 °F 72% 29.89 in 10.0 mi SSW 11.5 mph 18.4 mph N/A   Overcast
9:55 AM 32.7 °F 23.4 °F 24.6 °F 72% 29.90 in 10.0 mi SSW 12.7 mph - N/A   Mostly Cloudy
10:15 AM 34.5 °F 24.5 °F 25.3 °F 69% 29.90 in 10.0 mi SSW 16.1 mph - N/A   Scattered Clouds
10:35 AM 34.2 °F 23.6 °F 25.7 °F 71% 29.89 in 10.0 mi SW 17.3 mph - N/A   Overcast
10:55 AM 34.7 °F 25.9 °F 26.1 °F 71% 29.88 in 10.0 mi SW 12.7 mph - N/A   Overcast
11:15 AM 36.1 °F 28.2 °F 26.6 °F 68% 29.88 in 10.0 mi SSW 11.5 mph - N/A   Overcast
11:35 AM 36.9 °F 28.7 °F 27.1 °F 68% 29.87 in 10.0 mi SSW 12.7 mph - N/A   Overcast
11:55 AM 37.9 °F 29.6 °F 27.5 °F 66% 29.86 in 10.0 mi SSW 13.8 mph - N/A   Overcast
12:15 PM 39.6 °F 31.3 °F 27.9 °F 63% 29.85 in 10.0 mi SSW 15.0 mph - N/A   Overcast
12:35 PM 40.3 °F 32.2 °F 28.4 °F 63% 29.85 in 10.0 mi SW 15.0 mph - N/A   Scattered Clouds
12:55 PM 41.5 °F 35.0 °F 28.8 °F 60% 29.85 in 10.0 mi SW 11.5 mph - N/A   Clear
1:15 PM 43.7 °F 37.7 °F 29.7 °F 58% 29.85 in 10.0 mi WSW 11.5 mph - N/A   Clear
1:35 PM 45.9 °F 39.7 °F 30.2 °F 54% 29.84 in 10.0 mi West 13.8 mph - N/A   Clear
1:55 PM 46.9 °F - 30.7 °F 53% 29.84 in 10.0 mi WSW 12.7 mph - N/A   Clear
2:15 PM 48.0 °F - 31.1 °F 52% 29.83 in 10.0 mi WSW 10.4 mph - N/A   Clear
2:35 PM 49.5 °F - 31.8 °F 51% 29.83 in 10.0 mi West 12.7 mph - N/A   Clear
2:55 PM 49.5 °F - 31.8 °F 51% 29.83 in 10.0 mi West 9.2 mph - N/A   Clear
3:15 PM 51.3 °F - 32.0 °F 48% 29.82 in 10.0 mi SW 10.4 mph - N/A   Clear
3:35 PM 52.7 °F - 32.4 °F 46% 29.83 in 10.0 mi WSW 11.5 mph - N/A   Clear
3:55 PM 54.0 °F - 32.7 °F 45% 29.83 in 10.0 mi WSW 15.0 mph 19.6 mph N/A   Clear
4:15 PM 56.1 °F - 31.3 °F 39% 29.83 in 10.0 mi WNW 21.9 mph 26.5 mph N/A   Clear
4:35 PM 57.2 °F - 25.9 °F 30% 29.85 in 10.0 mi NW 18.4 mph 28.8 mph N/A   Clear
4:55 PM 56.7 °F - 25.7 °F 30% 29.86 in 10.0 mi NW 20.7 mph 29.9 mph N/A   Clear
5:15 PM 55.4 °F - 24.8 °F 31% 29.88 in 10.0 mi NW 18.4 mph 23.0 mph N/A   Clear
5:35 PM 53.8 °F - 23.9 °F 31% 29.88 in 10.0 mi NW 18.4 mph 25.3 mph N/A   Clear
5:55 PM 49.8 °F - 24.6 °F 37% 29.90 in 10.0 mi NNW 12.7 mph - N/A   Clear
6:15 PM 48.0 °F - 23.9 °F 39% 29.92 in 10.0 mi NNW 12.7 mph - N/A   Clear
6:35 PM 46.8 °F - 23.2 °F 40% 29.93 in 10.0 mi NW 11.5 mph - N/A   Clear
6:55 PM 42.8 °F 37.0 °F 23.4 °F 46% 29.94 in 10.0 mi NNW 10.4 mph - N/A   Clear
7:15 PM 39.6 °F 33.5 °F 23.4 °F 52% 29.97 in 10.0 mi NNW 9.2 mph - N/A   Clear
7:35 PM 41.0 °F 33.9 °F 24.6 °F 52% 29.98 in 10.0 mi NNW 12.7 mph - N/A   Clear
7:55 PM 37.0 °F 31.0 °F 24.3 °F 60% 30.00 in 10.0 mi NNW 8.1 mph - N/A   Clear
8:15 PM 39.0 °F 33.4 °F 26.2 °F 60% 30.01 in 10.0 mi NNW 8.1 mph - N/A   Clear
8:35 PM 35.6 °F 29.2 °F 25.9 °F 68% 30.01 in 10.0 mi North 8.1 mph - N/A   Clear
8:55 PM 33.4 °F - 25.3 °F 72% 30.02 in 10.0 mi Calm Calm - N/A   Clear
9:15 PM 33.8 °F 28.6 °F 25.3 °F 71% 30.03 in 10.0 mi NW 5.8 mph - N/A   Clear
9:35 PM 30.9 °F 25.2 °F 23.9 °F 75% 30.04 in 10.0 mi West 5.8 mph - N/A   Clear
9:55 PM 34.0 °F 28.0 °F 25.9 °F 72% 30.05 in 10.0 mi NW 6.9 mph - N/A   Clear
10:15 PM 33.3 °F 27.1 °F 26.1 °F 75% 30.05 in 10.0 mi NW 6.9 mph - N/A   Clear
10:35 PM 34.0 °F 28.0 °F 25.9 °F 72% 30.07 in 10.0 mi WNW 6.9 mph - N/A   Clear
10:55 PM 31.8 °F 27.3 °F 25.5 °F 78% 30.08 in 10.0 mi WNW 4.6 mph - N/A   Clear
11:15 PM 29.7 °F 23.7 °F 24.3 °F 80% 30.08 in 10.0 mi NW 5.8 mph - N/A   Clear
11:35 PM 28.9 °F 20.4 °F 24.8 °F 84% 30.08 in 10.0 mi NNW 9.2 mph - N/A   Clear
11:55 PM 27.7 °F 22.4 °F 23.9 °F 86% 30.08 in 10.0 mi North 4.6 mph - N/A   Clear